Weather History for Shelton, WA

Change the Weather History Date:

Saturday, July 6, 2013

  Actual Average Record
Temperature  
Mean Temperature 66 °F -  
Max Temperature 78 °F 72 °F 97 °F (1960)
Min Temperature 55 °F 51 °F 39 °F (2010)
Cooling Degree Days 1    
Growing Degree Days 16 (Base 50)    
Moisture  
Dew Point 55 °F    
Average Humidity 75    
Maximum Humidity 94    
Minimum Humidity 50    
Precipitation  
Precipitation 0.00 in - - ()
Sea Level Pressure  
Sea Level Pressure 29.94 in    
Wind  
Wind Speed 6 mph (WSW)    
Max Wind Speed 14 mph    
Max Gust Speed -    
Visibility 10 miles    
Events      
Averages and records for this station are not official NWS values.
T = Trace of Precipitation, MM = Missing Value Source: NWS Daily Summary

Daily Weather History Graph

Daily Weather History Graph

Search for Another Location

Airport:

Trip Planner

Search our weather history database for the weather conditions in past years. The results will help you decide how hot, cold, wet, or windy it might be!

Date:

Astronomy

Jul. 06, 2013 Rise Set
Actual Time 5:24 AM PDT 9:10 PM PDT
Civil Twilight 4:44 AM PDT 9:49 PM PDT
Nautical Twilight 3:51 AM PDT 10:42 PM PDT
Astronomical Twilight 2:34 AM PDT 11:58 PM PDT
Moon 4:18 AM PDT (7/6) 7:51 PM PDT (7/6)
Length of Visible Light 17h 04m
Length of Day
15h 46m
Waning Crescent, 2% of the Moon is Illuminated
Jul 6
Waning Crescent
Jul 8
New
Jul 15
First Quarter
Jul 22
Full
Jul 29
Last Quarter

Hourly Weather History & Observations

Time (PDT) Temp. Dew Point Humidity Pressure Visibility Wind Dir Wind Speed Gust Speed Precip Events Conditions
12:02 AM 55.4 °F 53.6 °F 94% 29.97 in 10.0 mi WSW 9.2 mph - N/A   Scattered Clouds
12:12 AM 55.4 °F 53.6 °F 94% 29.97 in 10.0 mi SW 11.5 mph - N/A   Mostly Cloudy
12:53 AM 55.9 °F 53.1 °F 90% 29.97 in 10.0 mi WSW 12.7 mph - N/A   Overcast
1:53 AM 55.9 °F 53.1 °F 90% 29.97 in 10.0 mi WSW 9.2 mph - N/A   Overcast
2:53 AM 55.0 °F 53.1 °F 93% 29.98 in 10.0 mi WSW 5.8 mph - N/A   Overcast
3:53 AM 55.0 °F 53.1 °F 93% 29.97 in 10.0 mi WSW 6.9 mph - N/A   Overcast
4:53 AM 55.0 °F 53.1 °F 93% 29.97 in 10.0 mi WSW 4.6 mph - N/A   Overcast
5:53 AM 55.0 °F 53.1 °F 93% 29.97 in 10.0 mi WSW 6.9 mph - N/A   Overcast
6:53 AM 55.9 °F 53.1 °F 90% 29.97 in 9.0 mi West 5.8 mph - N/A   Overcast
7:53 AM 55.9 °F 54.0 °F 93% 29.98 in 10.0 mi WSW 3.5 mph - N/A   Overcast
8:53 AM 57.9 °F 54.0 °F 87% 29.98 in 10.0 mi Calm Calm - N/A   Overcast
9:13 AM 57.2 °F 53.6 °F 88% 29.98 in 10.0 mi Calm Calm - N/A   Overcast
9:53 AM 61.0 °F 54.0 °F 78% 29.97 in 10.0 mi Calm Calm - N/A   Overcast
10:25 AM 62.6 °F 55.4 °F 77% 29.97 in 10.0 mi Calm Calm - N/A   Mostly Cloudy
10:35 AM 64.4 °F 53.6 °F 68% 29.97 in 10.0 mi Calm Calm - N/A   Scattered Clouds
10:53 AM 66.9 °F 55.0 °F 66% 29.96 in 10.0 mi Calm Calm - N/A   Scattered Clouds
11:00 AM 66.2 °F 55.4 °F 68% 29.96 in 10.0 mi Calm Calm - N/A   Mostly Cloudy
11:31 AM 66.2 °F 55.4 °F 68% 29.96 in 10.0 mi South 5.8 mph - N/A   Scattered Clouds
11:42 AM 68.0 °F 55.4 °F 64% 29.96 in 10.0 mi Calm Calm - N/A   Mostly Cloudy
11:53 AM 68.0 °F 55.0 °F 63% 29.96 in 10.0 mi Calm Calm - N/A   Mostly Cloudy
12:04 PM 66.2 °F 53.6 °F 64% 29.95 in 10.0 mi Calm Calm - N/A   Partly Cloudy
12:53 PM 70.0 °F 55.0 °F 59% 29.94 in 10.0 mi Variable 3.5 mph - N/A   Partly Cloudy
1:53 PM 72.0 °F 54.0 °F 53% 29.93 in 10.0 mi Variable 3.5 mph - N/A   Clear
2:53 PM 73.0 °F 54.0 °F 51% 29.91 in 10.0 mi Variable 5.8 mph - N/A   Clear
3:53 PM 75.0 °F 55.9 °F 51% 29.89 in 10.0 mi SSW 4.6 mph - N/A   Clear
4:53 PM 77.0 °F 57.0 °F 50% 29.88 in 10.0 mi Calm Calm - N/A   Partly Cloudy
5:53 PM 77.0 °F 57.0 °F 50% 29.86 in 10.0 mi WSW 3.5 mph - N/A   Clear
6:53 PM 73.9 °F 57.0 °F 55% 29.86 in 10.0 mi WSW 13.8 mph - N/A   Clear
7:53 PM 71.1 °F 55.0 °F 57% 29.87 in 10.0 mi WSW 11.5 mph - N/A   Clear
8:53 PM 66.0 °F 55.0 °F 68% 29.88 in 10.0 mi WSW 8.1 mph - N/A   Clear
9:53 PM 63.0 °F 55.0 °F 75% 29.90 in 10.0 mi WSW 12.7 mph - N/A   Clear
10:53 PM 60.1 °F 55.9 °F 86% 29.91 in 10.0 mi WSW 6.9 mph - N/A   Scattered Clouds
11:53 PM 57.0 °F 55.0 °F 93% 29.91 in 9.0 mi WSW 6.9 mph - N/A   Scattered Clouds